Location: Asheville, NC
(35.6000°N, 82.5500°W)
Time: 11:42:15
(UTC-04:00)

ITAMSAT 1 - Pass Details

Date: 18 March 2018
Orbit: 784 x 796 km, 98.9° (Epoch: 20 June)

Event Time Altitude Azimuth Distance (km) Brightness Sun altitude
Rises 07:05:47 0° 349° (N) 3,299 10.8 -7.1°
Reaches altitude 10° 07:09:44 10° 319° (NW) 2,362 9.8 -6.3°
Maximum altitude 07:11:32 12° 298° (WNW) 2,233 9.5 -5.9°
Drops below altitude 10° 07:13:20 10° 278° (W) 2,355 9.5 -5.6°
Enters shadow 07:15:12 - 261° (W) 2,710 9.8 -5.2°
